カタログに戻る

QIANFAN-117

運用中通信PO
NORAD 68644·PAYLOAD·🇨🇳 China

打ち上げ Apr 7, 2026 から Wenchang Space Launch Site

Loading…

次のパス (今後24時間)

TLE

最新Source: Space-Track

元期: Sep 14, 2026, 22:09 UTC

1 68644U 26075J   26257.92306706  .00000069  00000-0  88037-4 0  9998
2 68644  88.9869 311.8403 0002241  91.1284 269.0123 13.51022626 21927

AllMySatでQIANFAN-117をリアルタイム追跡

Download on the App Store